千帆星座-34 (QIANFAN-34)

Basic Information
目录编号:
61567
目录名称:
QIANFAN-34
国际标识:
2024-185R
轨道中心:
EARTH
卫星名称:
千帆星座-34
卫星全名:
千帆星座-34 (QIANFAN-34)
卫星状态:
在轨 (已飞行515 天)
发射日期:
2024-10-15 UTC
国别 :
中国 (CN)
星等 :
--
Orbit Information
数据来源 国际轨道数据 AOE轨道数据
星历时间 2026-03-14T07:42:00+0800
9小时前
查看轨道信息
2026-03-13T17:00:00+0800
23小时前
查看轨道信息
半长轴 7263.661km 7263.669km
偏心率 0.0007868 0.0007898
轨道倾角 88.972° 88.972°
近地点辐角 55.577° 58.586°
升交点赤经 68.055° 68.125°
平近点角 304.615° 91.282°
近地点 879.808km 879.795km
远地点 891.24km 891.269km
周期 102.682分钟 102.682分钟
每日圈数 14.02392 14.023899
Detailed Information
卫星平台:
34
覆盖范围:
全球
运营商:
上海垣信卫星科技有限公司
运营商所在国:
中国
使用方式:
暂无
Satellite Introduction
千帆星座,也被称为“G60星链”计划,是中国版“星链”的重要组成部分,旨在打造一个由1.4万多颗低轨宽频多媒体卫星构成的庞大星座。千帆星座计划由上海垣信卫星科技有限公司负责实施,于2023年启动建设。该项目是我国第二个低轨卫星大星座,旨在通过构建庞大的卫星网络,为全球用户提供高质量的通信和宽带互联网服务。
2D Orbit Map
3D Orbit Map
Orbit Altitude Analysis Chart
Orbit Inclination Analysis Chart
Orbit Comprehensive Analysis Chart
View Comprehensive Chart